{"data":{"norad_id":64762,"intl_designator":"2025-147H","name":"STARLINK-34638","alt_names":[],"object_type":"PAYLOAD","status":"ACTIVE","operator":null,"country":"US","launch_date":"2025-07-08","launch_site_code":"AFETR","launch_vehicle":null,"mission":null,"orbit_class":"UNKNOWN","rcs_meters":null,"size_class":null,"mass_kg":null,"dimensions":null,"purposes":["comms"],"wikipedia_slug":null,"has_3d_model":false,"image_url":null,"decayed_at":null,"tle_current":{"epoch":"2026-05-24T23:34:11.837280Z","epoch_age_seconds":66794,"freshness":"FRESH","line1":"1 64762U 25147H   26144.98208145  .00034483  00000+0  10270-2 0  9991","line2":"2 64762  53.1585 247.5910 0001293  86.9584 273.1567 15.34401100 50440","mean_motion":15.344011,"eccentricity":0.0001293,"inclination_deg":53.1585,"raan_deg":247.591,"arg_perigee_deg":86.9584,"mean_anomaly_deg":273.1567,"bstar":0.001027,"rev_number":5044,"period_min":93.84769080262,"perigee_km":461.81545055692,"apogee_km":463.58449099756,"semimajor_km":6840.8369707772,"source":"CELESTRAK","updated_at":"2026-05-25T13:38:20.554244Z"}}}